Weather Roundup
Issued by NWS

Home | Current Version | Previous Version | Graphics & Text | Print | Product List | Glossary Off
Versions: 1 2 3 4 5 6 7 8 9 10 11 12 13 14 15 16 17 18 19 20 21 22 23 24 25 26 27 28 29 30 31 32 33 34 35 36 37 38 39 40 41 42 43 44 45 46 47 48 49 50

000
NZUS93 KARX 222059
HRRWXR

CURRENT HOURLY OBSERVATIONS ACROSS
MUCH OF THE UPPER MISSISSIPPI VALLEY
NATIONAL WEATHER SERVICE LA CROSSE WI
300 PM CST THU FEB 22 2018


...SOUTHEAST MINNESOTA...


CITY           SKY/WX    TMP DP  RH WIND       PRES   REMARKS
ROCHESTER      CLOUDY    27  22  81 E9        30.37F WCI  18
ROCHESTER/MAYO CLOUDY    28  20  72 E10G16    30.39F WCI  18
WINONA         CLOUDY    32  19  59 E6        30.42F WCI  26
AUSTIN         CLOUDY    28  21  74 E13       30.36R WCI  18
ALBERT LEA     FAIR      30  21  69 E7        30.35S WCI  23
DODGE CENTER   FAIR      28  21  74 E12       30.37F WCI  18
PRESTON        CLOUDY    27  20  75 E6        30.40R WCI  20
OWATONNA       FAIR      28  23  80 E10       30.37F WCI  19
FARIBAULT      CLOUDY    27  19  74 NE8       30.40F WCI  18
$$

...ELSEWHERE IN MINNESOTA...


CITY           SKY/WX    TMP DP  RH WIND       PRES   REMARKS
MINNEAPOLIS    CLOUDY    29  15  56 E9        30.43F WCI  20
INTNL FALLS    FAIR      28   3  34 S8        30.38F WCI  20
DULUTH         CLOUDY    23   6  48 SE6       30.43F WCI  16
RED WING       PTSUNNY   30   9  40 E5        30.43F WCI  25
REDWOOD FALLS  CLOUDY    25  20  81 E8        30.36F WCI  16
MANKATO        CLOUDY    28  22  78 E10       30.37F WCI  19
WORTHINGTON    LGT SNOW  23  20  88 E16       30.28F FOG     WCI  10
FAIRMONT       FLURRIES  29  24  82 E15       30.33F WCI  18
$$

...SOUTHWEST WISCONSIN...


CITY           SKY/WX    TMP DP  RH WIND       PRES   REMARKS
LA CROSSE      CLOUDY    32  19  58 E9        30.44F WCI  24
PRAIRIE DU CHI CLOUDY    34  18  53 NE8       30.42S WCI  27
BOSCOBEL       CLOUDY    34  21  59 E7        30.44F WCI  28
LONE ROCK      NOT AVBL
PLATTEVILLE    CLOUDY    33  27  76 NE14      30.40R WCI  24
FORT MC COY    CLOUDY    32  17  55 E7        30.46F WCI  25
CAMP DOUGLAS   CLOUDY    32  18  55 E12       30.46F WCI  23
MAUSTON-NEW LI CLOUDY    32  18  55 E9        30.45F WCI  24
VIROQUA        CLOUDY    31  19  62 E9        30.41S WCI  23
WIS DELLS      CLOUDY    32  21  64 E12       30.45F WCI  23
$$

...ELSEWHERE IN WISCONSIN...


CITY           SKY/WX    TMP DP  RH WIND       PRES   REMARKS
MILWAUKEE      CLOUDY    35  29  78 NE15      30.48F WCI  25
MADISON        CLOUDY    34  25  69 E12       30.45F WCI  25
GREEN BAY      PTSUNNY   31  21  66 NE15      30.53F WCI  20
EAU CLAIRE     NOT AVBL
BLACK RVR FLS  CLOUDY    31  17  54 E7        30.46F WCI  24
MEDFORD        CLOUDY    28  11  49 E6        30.47S WCI  21
WAUSAU         CLOUDY    29  13  51 E8        30.47F WCI  21
WIS RAPIDS     CLOUDY    29  15  56 NE9       30.47F WCI  20
MARSHFIELD     CLOUDY    28  15  58 E10       30.44F WCI  19
RICE LAKE      CLOUDY    28  11  48 SE8       30.48F WCI  20
$$

...NORTHEAST IOWA...


CITY           SKY/WX    TMP DP  RH WIND       PRES   REMARKS
WATERLOO       MIX PCPN  32  27  81 E10       30.36S WCI  24
DUBUQUE        CLOUDY    33  25  72 NE13      30.38R WCI  24
DECORAH        CLOUDY    32  16  51 E13       30.38R WCI  22
MASON CITY     CLOUDY    29  20  69 E12       30.36S WCI  19
CHARLES CITY   CLOUDY    32  21  64 E12       30.37R WCI  23
OELWEIN        MIX PCPN  34  30  86 E12       30.36R WCI  25
$$

...ELSEWHERE IN IOWA...


CITY           SKY/WX    TMP DP  RH WIND       PRES   REMARKS
DES MOINES     FRZ RAIN  31  29  92 SE8       30.33F WCI  23
IOWA CITY      CLOUDY    35  30  82 E9        30.39R HAZE    WCI  28
FORT DODGE     LGT SNOW  30  27  88 SE8       30.33F VSB 1   WCI  22
MARSHALLTOWN   MIX PCPN  32  30  92 SE8       30.35R FOG     WCI  25
CEDAR RAPIDS   LGT RAIN  33  31  92 E12       30.36S FOG     WCI  24
$$

...NORTHERN ILLINOIS...


CITY           SKY/WX    TMP DP  RH WIND       PRES   REMARKS
CHICAGO-OHARE  CLOUDY    38  28  67 E16       30.43F WCI  29
CHICAGO-MIDWAY CLOUDY    39  30  70 NE17      30.44F WCI  30
MOLINE         CLOUDY    39  32  76 E10       30.37R WCI  32
ROCKFORD       CLOUDY    39  29  67 E13       30.40F WCI  31
PEORIA         CLOUDY    41  39  93 E9        30.32F FOG
$$

NOTE: "FAIR" INDICATES FEW OR NO CLOUDS BELOW 12,000 FEET WITH NO
SIGNIFICANT WEATHER AND/OR OBSTRUCTIONS TO VISIBILITY. WIND
SPEEDS ARE IN MILES-PER-HOUR.




USA.gov is the U.S. government's official web portal to all federal, state and local government web resources and services.